KEPLER-20 (56217 NORAD) Tracking and Keplerian Element Data

This shows tracking and keplerian element data for the satellite.

Feedback or suggestion? Click here.




ElementValue
Catalog56217
NameKEPLER-20
Epoch Orbit2092
Epoch Day238.76282059
Epoch Year2023
RAAN132.7813
Inclination97.398
Eccentricity0.0012755
Argument of Perigee128.9542
Mean Anonmoly231.2834
Mean Motion15.23955102
Decay Rate6.18E-05
L11 56217U 23054AR 23238.76282059 .00006180 00000+0 25788-3 0 9999
L22 56217 97.3980 132.7813 0012755 128.9542 231.2834 15.23955102 20924



Live tracking and technical data element details for KEPLER-20 (NORAD 56217). KEPLER-20 can be tracked NOW for your location showing map with azimuth and elevation plus other details from your city location.







IsCatalogInMostPopularTable: catalog: 56217, numindb: 7
Update: records affected: 1



GetName: 56217 KEPLER-20

Hit Count: updated at: Thu, 28 Sep 2023 05:23:44 GMT